Location: Unspecified
(41.1825°N, 0.0000°E)
Time: 16:47:00
(UTC+00:00)

MOS 1-B - Visible Passes

Search period start: 04 April 2026 00:00
Search period end: 14 April 2026 00:00
Orbit: 903 x 912 km, 99.2° (Epoch: 29 March)

Date Brightness Start Highest point End Pass type
(mag) Time Alt. Az. Time Alt. Az. Time Alt. Az.
4 Apr 5.6 19:41:02 18° E 19:43:17 23° ENE 19:47:39 10° NNE visible
4 Apr 4.7 21:24:14 54° WSW 21:24:39 55° W 21:30:19 10° NNW visible
5 Apr 5.5 19:45:48 20° E 19:48:00 25° ENE 19:52:34 10° N visible
5 Apr 4.9 21:29:00 49° WSW 21:29:27 50° W 21:35:04 10° NNW visible
6 Apr 5.4 19:50:33 21° E 19:52:45 27° ENE 19:57:29 10° N visible
6 Apr 5.0 21:33:45 44° WSW 21:34:16 45° W 21:39:48 10° NNW visible
7 Apr 5.3 19:55:19 23° E 19:57:29 29° ENE 20:02:22 10° N visible
7 Apr 5.2 21:38:31 40° WSW 21:39:05 41° W 21:44:32 10° NNW visible
8 Apr 5.2 20:00:05 25° ESE 20:02:14 32° ENE 20:07:15 10° N visible
8 Apr 5.3 21:43:17 37° WSW 21:43:54 38° W 21:49:14 10° NNW visible
9 Apr 5.1 20:04:51 26° ESE 20:06:58 35° ENE 20:12:08 10° N visible
9 Apr 5.5 21:48:03 33° WSW 21:48:43 34° W 21:53:57 10° NNW visible
10 Apr 5.0 20:09:37 28° ESE 20:11:43 38° ENE 20:16:59 10° N visible
10 Apr 5.6 21:52:49 30° WSW 21:53:32 31° W 21:58:38 10° NW visible
11 Apr 4.8 20:14:23 30° ESE 20:16:29 41° ENE 20:21:50 10° N visible
11 Apr 5.7 21:57:34 28° WSW 21:58:22 29° W 22:03:18 10° NW visible
12 Apr 4.7 20:19:08 32° ESE 20:21:14 45° ENE 20:26:42 10° N visible
12 Apr 5.9 22:02:20 25° WSW 22:03:11 26° W 22:07:58 10° NW visible
13 Apr 4.6 20:23:55 34° ESE 20:26:00 49° ENE 20:31:32 10° N visible
13 Apr 6.0 22:07:06 23° WSW 22:08:01 24° W 22:12:37 10° NW visible
